owner,sensor,date,latitude,longitude,vertical_datum,sea_water_practical_salinity,qcFlag 
DISL,ioos:station:DISL:DISL:1,2019-08-01T00:00:00Z,30.2513,-88.0778,1.8,18.14,11111222 
DISL,ioos:station:DISL:DISL:1,2019-08-01T00:30:00Z,30.2513,-88.0778,1.772,18.01,11111222 
DISL,ioos:station:DISL:DISL:1,2019-08-01T01:00:00Z,30.2513,-88.0778,1.7,17.84,11111222 
DISL,ioos:station:DISL:DISL:1,2019-08-01T01:30:00Z,30.2513,-88.0778,1.74,17.95,11111222 
DISL,ioos:station:DISL:DISL:1,2019-08-01T02:00:00Z,30.2513,-88.0778,1.7,17.81,11111222 
DISL,ioos:station:DISL:DISL:1,2019-08-01T02:30:00Z,30.2513,-88.0778,1.74,17.82,11111222 
DISL,ioos:station:DISL:DISL:1,2019-08-01T03:00:00Z,30.2513,-88.0778,1.7,17.83,11111222 
DISL,ioos:station:DISL:DISL:1,2019-08-01T03:30:00Z,30.2513,-88.0778,1.722,17.0,11111222 
DISL,ioos:station:DISL:DISL:1,2019-08-01T04:00:00Z,30.2513,-88.0778,1.7,17.31,11111222 
DISL,ioos:station:DISL:DISL:1,2019-08-01T04:30:00Z,30.2513,-88.0778,1.737,19.05,11111222 
DISL,ioos:station:DISL:DISL:1,2019-08-01T05:00:00Z,30.2513,-88.0778,1.8,20.06,11111222 
DISL,ioos:station:DISL:DISL:1,2019-08-01T05:30:00Z,30.2513,-88.0778,1.767,20.96,11111222 
DISL,ioos:station:DISL:DISL:1,2019-08-01T06:00:00Z,30.2513,-88.0778,1.8,20.96,11111222 
DISL,ioos:station:DISL:DISL:1,2019-08-01T06:30:00Z,30.2513,-88.0778,1.81,18.6,11111222 
DISL,ioos:station:DISL:DISL:1,2019-08-01T07:00:00Z,30.2513,-88.0778,1.8,17.97,11111222 
DISL,ioos:station:DISL:DISL:1,2019-08-01T07:30:00Z,30.2513,-88.0778,1.857,18.02,11111222 
DISL,ioos:station:DISL:DISL:1,2019-08-01T08:00:00Z,30.2513,-88.0778,1.9,18.0,11111222 
DISL,ioos:station:DISL:DISL:1,2019-08-01T08:30:00Z,30.2513,-88.0778,1.895,17.96,11111222 
DISL,ioos:station:DISL:DISL:1,2019-08-01T09:00:00Z,30.2513,-88.0778,1.9,17.86,11111222 
DISL,ioos:station:DISL:DISL:1,2019-08-01T09:30:00Z,30.2513,-88.0778,1.963,17.71,11111222 
DISL,ioos:station:DISL:DISL:1,2019-08-01T10:00:00Z,30.2513,-88.0778,2.0,17.42,11111222 
DISL,ioos:station:DISL:DISL:1,2019-08-01T10:30:00Z,30.2513,-88.0778,2.035,17.32,11111222 
DISL,ioos:station:DISL:DISL:1,2019-08-01T11:00:00Z,30.2513,-88.0778,2.0,17.29,11111222 
DISL,ioos:station:DISL:DISL:1,2019-08-01T11:30:00Z,30.2513,-88.0778,2.095,17.21,11111222 
DISL,ioos:station:DISL:DISL:1,2019-08-01T12:00:00Z,30.2513,-88.0778,2.1,20.22,11111222 
DISL,ioos:station:DISL:DISL:1,2019-08-01T12:30:00Z,30.2513,-88.0778,2.175,19.89,11111222 
DISL,ioos:station:DISL:DISL:1,2019-08-01T13:00:00Z,30.2513,-88.0778,2.2,18.17,11111222 
DISL,ioos:station:DISL:DISL:1,2019-08-01T13:30:00Z,30.2513,-88.0778,2.222,17.96,11111222 
DISL,ioos:station:DISL:DISL:1,2019-08-01T14:00:00Z,30.2513,-88.0778,2.2,17.15,11111222 
DISL,ioos:station:DISL:DISL:1,2019-08-01T14:30:00Z,30.2513,-88.0778,2.273,17.16,11111222 
DISL,ioos:station:DISL:DISL:1,2019-08-01T15:00:00Z,30.2513,-88.0778,2.3,17.19,11111222 
DISL,ioos:station:DISL:DISL:1,2019-08-01T15:30:00Z,30.2513,-88.0778,2.3,17.21,11111222 
DISL,ioos:station:DISL:DISL:1,2019-08-01T16:00:00Z,30.2513,-88.0778,2.3,17.21,11111222 
DISL,ioos:station:DISL:DISL:1,2019-08-01T16:30:00Z,30.2513,-88.0778,2.3,17.17,11111222 
DISL,ioos:station:DISL:DISL:1,2019-08-01T17:00:00Z,30.2513,-88.0778,2.3,17.15,11111222 
DISL,ioos:station:DISL:DISL:1,2019-08-01T17:30:00Z,30.2513,-88.0778,2.292,17.14,11111222 
DISL,ioos:station:DISL:DISL:1,2019-08-01T18:00:00Z,30.2513,-88.0778,2.2,17.13,11111222 
DISL,ioos:station:DISL:DISL:1,2019-08-01T18:30:00Z,30.2513,-88.0778,2.236,17.13,11111222 
DISL,ioos:station:DISL:DISL:1,2019-08-01T19:00:00Z,30.2513,-88.0778,2.2,17.14,11111222 
DISL,ioos:station:DISL:DISL:1,2019-08-01T19:30:00Z,30.2513,-88.0778,2.153,17.15,11111222 
DISL,ioos:station:DISL:DISL:1,2019-08-01T20:00:00Z,30.2513,-88.0778,2.1,17.18,11111222 
DISL,ioos:station:DISL:DISL:1,2019-08-01T20:30:00Z,30.2513,-88.0778,2.086,17.2,11111222 
DISL,ioos:station:DISL:DISL:1,2019-08-01T21:00:00Z,30.2513,-88.0778,2.0,17.24,11111222 
DISL,ioos:station:DISL:DISL:1,2019-08-01T21:30:00Z,30.2513,-88.0778,1.993,17.2,11111222 
DISL,ioos:station:DISL:DISL:1,2019-08-01T22:00:00Z,30.2513,-88.0778,1.9,17.18,11111222 
DISL,ioos:station:DISL:DISL:1,2019-08-01T22:30:00Z,30.2513,-88.0778,1.926,17.21,11111222 
DISL,ioos:station:DISL:DISL:1,2019-08-01T23:00:00Z,30.2513,-88.0778,1.9,18.29,11111222 
DISL,ioos:station:DISL:DISL:1,2019-08-01T23:30:00Z,30.2513,-88.0778,1.895,19.44,11111222 
DISL,ioos:station:DISL:DISL:1,2019-08-02T00:00:00Z,30.2513,-88.0778,1.9,19.62,11111222 
DISL,ioos:station:DISL:DISL:1,2019-08-02T00:30:00Z,30.2513,-88.0778,1.876,20.01,11111222 
DISL,ioos:station:DISL:DISL:1,2019-08-02T01:00:00Z,30.2513,-88.0778,1.9,20.04,11111222 
DISL,ioos:station:DISL:DISL:1,2019-08-02T01:30:00Z,30.2513,-88.0778,1.816,19.82,11111222 
DISL,ioos:station:DISL:DISL:1,2019-08-02T02:00:00Z,30.2513,-88.0778,1.8,19.76,11111222 
DISL,ioos:station:DISL:DISL:1,2019-08-02T02:30:00Z,30.2513,-88.0778,1.778,19.77,11111222 
DISL,ioos:station:DISL:DISL:1,2019-08-02T03:00:00Z,30.2513,-88.0778,1.8,19.7,11111222 
DISL,ioos:station:DISL:DISL:1,2019-08-02T03:30:00Z,30.2513,-88.0778,1.752,19.73,11111222 
DISL,ioos:station:DISL:DISL:1,2019-08-02T04:00:00Z,30.2513,-88.0778,1.8,19.76,11111222 
DISL,ioos:station:DISL:DISL:1,2019-08-02T04:30:00Z,30.2513,-88.0778,1.754,19.23,11111222 
DISL,ioos:station:DISL:DISL:1,2019-08-02T05:00:00Z,30.2513,-88.0778,1.8,18.81,11111222 
DISL,ioos:station:DISL:DISL:1,2019-08-02T05:30:00Z,30.2513,-88.0778,1.785,18.43,11111222 
DISL,ioos:station:DISL:DISL:1,2019-08-02T06:00:00Z,30.2513,-88.0778,1.8,18.35,11111222 
DISL,ioos:station:DISL:DISL:1,2019-08-02T06:30:00Z,30.2513,-88.0778,1.808,19.77,11111222 
DISL,ioos:station:DISL:DISL:1,2019-08-02T07:00:00Z,30.2513,-88.0778,1.8,20.05,11111222 
DISL,ioos:station:DISL:DISL:1,2019-08-02T07:30:00Z,30.2513,-88.0778,1.816,20.31,11111222 
DISL,ioos:station:DISL:DISL:1,2019-08-02T08:00:00Z,30.2513,-88.0778,1.8,19.39,11111222 
DISL,ioos:station:DISL:DISL:1,2019-08-02T08:30:00Z,30.2513,-88.0778,1.885,19.17,11111222 
DISL,ioos:station:DISL:DISL:1,2019-08-02T09:00:00Z,30.2513,-88.0778,1.9,18.97,11111222 
DISL,ioos:station:DISL:DISL:1,2019-08-02T09:30:00Z,30.2513,-88.0778,1.908,19.38,11111222 
DISL,ioos:station:DISL:DISL:1,2019-08-02T10:00:00Z,30.2513,-88.0778,1.9,19.46,11111222 
DISL,ioos:station:DISL:DISL:1,2019-08-02T10:30:00Z,30.2513,-88.0778,1.986,19.2,11111222 
DISL,ioos:station:DISL:DISL:1,2019-08-02T11:00:00Z,30.2513,-88.0778,2.0,19.42,11111222 
DISL,ioos:station:DISL:DISL:1,2019-08-02T11:30:00Z,30.2513,-88.0778,2.05,18.94,11111222 
DISL,ioos:station:DISL:DISL:1,2019-08-02T12:00:00Z,30.2513,-88.0778,2.1,20.47,11111222 
DISL,ioos:station:DISL:DISL:1,2019-08-02T12:30:00Z,30.2513,-88.0778,2.122,22.62,11111222 
DISL,ioos:station:DISL:DISL:1,2019-08-02T13:00:00Z,30.2513,-88.0778,2.1,22.99,11111222 
DISL,ioos:station:DISL:DISL:1,2019-08-02T13:30:00Z,30.2513,-88.0778,2.182,19.7,11111222 
DISL,ioos:station:DISL:DISL:1,2019-08-02T14:00:00Z,30.2513,-88.0778,2.2,18.01,11111222 
DISL,ioos:station:DISL:DISL:1,2019-08-02T14:30:00Z,30.2513,-88.0778,2.231,18.03,11111222 
DISL,ioos:station:DISL:DISL:1,2019-08-02T15:00:00Z,30.2513,-88.0778,2.3,17.98,11111222 
DISL,ioos:station:DISL:DISL:1,2019-08-02T15:30:00Z,30.2513,-88.0778,2.281,17.85,11111222 
DISL,ioos:station:DISL:DISL:1,2019-08-02T16:00:00Z,30.2513,-88.0778,2.3,17.88,11111222 
DISL,ioos:station:DISL:DISL:1,2019-08-02T16:30:00Z,30.2513,-88.0778,2.323,17.88,11111222 
DISL,ioos:station:DISL:DISL:1,2019-08-02T17:00:00Z,30.2513,-88.0778,2.3,17.86,11111222 
DISL,ioos:station:DISL:DISL:1,2019-08-02T17:30:00Z,30.2513,-88.0778,2.316,17.89,11111222 
DISL,ioos:station:DISL:DISL:1,2019-08-02T18:00:00Z,30.2513,-88.0778,2.3,17.93,11111222 
DISL,ioos:station:DISL:DISL:1,2019-08-02T18:30:00Z,30.2513,-88.0778,2.304,18.51,11111222 
DISL,ioos:station:DISL:DISL:1,2019-08-02T19:00:00Z,30.2513,-88.0778,2.2,17.93,11111222 
DISL,ioos:station:DISL:DISL:1,2019-08-02T19:30:00Z,30.2513,-88.0778,2.2,18.02,11111222 
DISL,ioos:station:DISL:DISL:1,2019-08-02T20:00:00Z,30.2513,-88.0778,2.221,18.05,11111222 
DISL,ioos:station:DISL:DISL:1,2019-08-02T20:30:00Z,30.2513,-88.0778,2.187,18.17,11111222 
DISL,ioos:station:DISL:DISL:1,2019-08-02T21:00:00Z,30.2513,-88.0778,2.1,18.22,11111222 
DISL,ioos:station:DISL:DISL:1,2019-08-02T21:30:00Z,30.2513,-88.0778,2.102,18.3,11111222 
DISL,ioos:station:DISL:DISL:1,2019-08-02T22:00:00Z,30.2513,-88.0778,2.1,18.8,11111222 
DISL,ioos:station:DISL:DISL:1,2019-08-02T22:30:00Z,30.2513,-88.0778,2.062,19.24,11111222 
DISL,ioos:station:DISL:DISL:1,2019-08-02T23:00:00Z,30.2513,-88.0778,2.0,19.12,11111222 
DISL,ioos:station:DISL:DISL:1,2019-08-02T23:30:00Z,30.2513,-88.0778,2.011,19.55,11111222 
DISL,ioos:station:DISL:DISL:1,2019-08-03T00:00:00Z,30.2513,-88.0778,2.0,19.63,11111222 
DISL,ioos:station:DISL:DISL:1,2019-08-03T00:30:00Z,30.2513,-88.0778,1.947,19.72,11111222 
DISL,ioos:station:DISL:DISL:1,2019-08-03T01:00:00Z,30.2513,-88.0778,1.9,19.81,11111222 
DISL,ioos:station:DISL:DISL:1,2019-08-03T01:30:00Z,30.2513,-88.0778,1.907,19.61,11111222 
DISL,ioos:station:DISL:DISL:1,2019-08-03T02:00:00Z,30.2513,-88.0778,1.9,19.55,11111222 
DISL,ioos:station:DISL:DISL:1,2019-08-03T02:30:00Z,30.2513,-88.0778,1.826,19.21,11111222 
DISL,ioos:station:DISL:DISL:1,2019-08-03T03:00:00Z,30.2513,-88.0778,1.8,18.84,11111222 
DISL,ioos:station:DISL:DISL:1,2019-08-03T03:30:00Z,30.2513,-88.0778,1.807,18.58,11111222 
DISL,ioos:station:DISL:DISL:1,2019-08-03T04:00:00Z,30.2513,-88.0778,1.8,18.15,11111222 
DISL,ioos:station:DISL:DISL:1,2019-08-03T04:30:00Z,30.2513,-88.0778,1.785,17.9,11111222 
DISL,ioos:station:DISL:DISL:1,2019-08-03T05:00:00Z,30.2513,-88.0778,1.8,17.6,11111222 
DISL,ioos:station:DISL:DISL:1,2019-08-03T05:30:00Z,30.2513,-88.0778,1.833,17.55,11111222 
DISL,ioos:station:DISL:DISL:1,2019-08-03T06:00:00Z,30.2513,-88.0778,1.8,17.56,11111222 
DISL,ioos:station:DISL:DISL:1,2019-08-03T06:30:00Z,30.2513,-88.0778,1.852,17.93,11111222 
DISL,ioos:station:DISL:DISL:1,2019-08-03T07:00:00Z,30.2513,-88.0778,1.9,20.52,11111222 
DISL,ioos:station:DISL:DISL:1,2019-08-03T07:30:00Z,30.2513,-88.0778,1.869,20.64,11111222 
DISL,ioos:station:DISL:DISL:1,2019-08-03T08:00:00Z,30.2513,-88.0778,1.9,20.17,11111222 
DISL,ioos:station:DISL:DISL:1,2019-08-03T08:30:00Z,30.2513,-88.0778,1.901,18.99,11111222 
DISL,ioos:station:DISL:DISL:1,2019-08-03T09:00:00Z,30.2513,-88.0778,1.9,18.18,11111222 
DISL,ioos:station:DISL:DISL:1,2019-08-03T09:30:00Z,30.2513,-88.0778,1.965,18.33,11111222 
DISL,ioos:station:DISL:DISL:1,2019-08-03T10:00:00Z,30.2513,-88.0778,2.0,18.58,11111222 
DISL,ioos:station:DISL:DISL:1,2019-08-03T10:30:00Z,30.2513,-88.0778,2.01,18.73,11111222 
DISL,ioos:station:DISL:DISL:1,2019-08-03T11:00:00Z,30.2513,-88.0778,2.0,18.88,11111222 
DISL,ioos:station:DISL:DISL:1,2019-08-03T11:30:00Z,30.2513,-88.0778,2.043,20.96,11111222 
DISL,ioos:station:DISL:DISL:1,2019-08-03T12:00:00Z,30.2513,-88.0778,2.1,23.05,11111222 
DISL,ioos:station:DISL:DISL:1,2019-08-03T12:30:00Z,30.2513,-88.0778,2.109,23.2,11111222 
DISL,ioos:station:DISL:DISL:1,2019-08-03T13:00:00Z,30.2513,-88.0778,2.1,23.76,11111222 
DISL,ioos:station:DISL:DISL:1,2019-08-03T13:30:00Z,30.2513,-88.0778,2.168,23.79,11111222 
DISL,ioos:station:DISL:DISL:1,2019-08-03T14:00:00Z,30.2513,-88.0778,2.2,24.48,11111222 
DISL,ioos:station:DISL:DISL:1,2019-08-03T14:30:00Z,30.2513,-88.0778,2.198,24.29,11111222 
DISL,ioos:station:DISL:DISL:1,2019-08-03T15:00:00Z,30.2513,-88.0778,2.2,24.27,11111222 
DISL,ioos:station:DISL:DISL:1,2019-08-03T15:30:00Z,30.2513,-88.0778,2.238,23.57,11111222 
DISL,ioos:station:DISL:DISL:1,2019-08-03T16:00:00Z,30.2513,-88.0778,2.3,21.62,11111222 
DISL,ioos:station:DISL:DISL:1,2019-08-03T16:30:00Z,30.2513,-88.0778,2.279,20.73,11111222 
DISL,ioos:station:DISL:DISL:1,2019-08-03T17:00:00Z,30.2513,-88.0778,2.3,18.83,11111222 
DISL,ioos:station:DISL:DISL:1,2019-08-03T17:30:00Z,30.2513,-88.0778,2.3,18.82,11111222 
DISL,ioos:station:DISL:DISL:1,2019-08-03T18:00:00Z,30.2513,-88.0778,2.3,18.74,11111222 
DISL,ioos:station:DISL:DISL:1,2019-08-03T18:30:00Z,30.2513,-88.0778,2.294,18.71,11111222 
DISL,ioos:station:DISL:DISL:1,2019-08-03T19:00:00Z,30.2513,-88.0778,2.3,18.67,11111222 
DISL,ioos:station:DISL:DISL:1,2019-08-03T19:30:00Z,30.2513,-88.0778,2.258,18.64,11111222 
DISL,ioos:station:DISL:DISL:1,2019-08-03T20:00:00Z,30.2513,-88.0778,2.2,18.63,11111222 
DISL,ioos:station:DISL:DISL:1,2019-08-03T20:30:00Z,30.2513,-88.0778,2.219,18.64,11111222 
DISL,ioos:station:DISL:DISL:1,2019-08-03T21:00:00Z,30.2513,-88.0778,2.2,18.66,11111222 
DISL,ioos:station:DISL:DISL:1,2019-08-03T21:30:00Z,30.2513,-88.0778,2.153,18.62,11111222 
DISL,ioos:station:DISL:DISL:1,2019-08-03T22:00:00Z,30.2513,-88.0778,2.1,18.59,11111222 
DISL,ioos:station:DISL:DISL:1,2019-08-03T22:30:00Z,30.2513,-88.0778,2.1,18.59,11111222 
DISL,ioos:station:DISL:DISL:1,2019-08-03T23:00:00Z,30.2513,-88.0778,2.062,18.6,11111222 
DISL,ioos:station:DISL:DISL:1,2019-08-03T23:30:00Z,30.2513,-88.0778,2.054,18.6,11111222 
DISL,ioos:station:DISL:DISL:1,2019-08-04T00:00:00Z,30.2513,-88.0778,2.0,18.61,11111222 
DISL,ioos:station:DISL:DISL:1,2019-08-04T00:30:00Z,30.2513,-88.0778,1.988,18.01,11111222 
DISL,ioos:station:DISL:DISL:1,2019-08-04T01:00:00Z,30.2513,-88.0778,2.0,18.32,11111222 
DISL,ioos:station:DISL:DISL:1,2019-08-04T01:30:00Z,30.2513,-88.0778,1.969,18.73,11111222 
DISL,ioos:station:DISL:DISL:1,2019-08-04T02:00:00Z,30.2513,-88.0778,1.9,19.05,11111222 
DISL,ioos:station:DISL:DISL:1,2019-08-04T02:30:00Z,30.2513,-88.0778,1.957,19.11,11111222 
DISL,ioos:station:DISL:DISL:1,2019-08-04T03:00:00Z,30.2513,-88.0778,1.9,19.13,11111222 
DISL,ioos:station:DISL:DISL:1,2019-08-04T03:30:00Z,30.2513,-88.0778,1.925,19.11,11111222 
DISL,ioos:station:DISL:DISL:1,2019-08-04T04:00:00Z,30.2513,-88.0778,1.9,19.08,11111222 
DISL,ioos:station:DISL:DISL:1,2019-08-04T04:30:00Z,30.2513,-88.0778,1.906,17.78,11111222 
DISL,ioos:station:DISL:DISL:1,2019-08-04T05:00:00Z,30.2513,-88.0778,1.9,17.9,11111222 
DISL,ioos:station:DISL:DISL:1,2019-08-04T05:30:00Z,30.2513,-88.0778,1.914,18.07,11111222 
DISL,ioos:station:DISL:DISL:1,2019-08-04T06:00:00Z,30.2513,-88.0778,1.9,18.42,11111222 
DISL,ioos:station:DISL:DISL:1,2019-08-04T06:30:00Z,30.2513,-88.0778,1.924,18.53,11111222 
DISL,ioos:station:DISL:DISL:1,2019-08-04T07:00:00Z,30.2513,-88.0778,1.9,18.56,11111222 
DISL,ioos:station:DISL:DISL:1,2019-08-04T07:30:00Z,30.2513,-88.0778,1.939,20.03,11111222 
DISL,ioos:station:DISL:DISL:1,2019-08-04T08:00:00Z,30.2513,-88.0778,1.9,20.19,11111222 
DISL,ioos:station:DISL:DISL:1,2019-08-04T08:30:00Z,30.2513,-88.0778,2.0,20.16,11111222 
DISL,ioos:station:DISL:DISL:1,2019-08-04T09:00:00Z,30.2513,-88.0778,1.975,18.86,11111222 
DISL,ioos:station:DISL:DISL:1,2019-08-04T09:30:00Z,30.2513,-88.0778,2.0,18.76,11111222 
DISL,ioos:station:DISL:DISL:1,2019-08-04T10:00:00Z,30.2513,-88.0778,2.008,18.7,11111222 
DISL,ioos:station:DISL:DISL:1,2019-08-04T10:30:00Z,30.2513,-88.0778,2.0,18.55,11111222 
DISL,ioos:station:DISL:DISL:1,2019-08-04T11:00:00Z,30.2513,-88.0778,2.037,18.57,11111222 
DISL,ioos:station:DISL:DISL:1,2019-08-04T11:30:00Z,30.2513,-88.0778,2.1,18.59,11111222 
DISL,ioos:station:DISL:DISL:1,2019-08-04T12:00:00Z,30.2513,-88.0778,2.074,18.6,11111222 
DISL,ioos:station:DISL:DISL:1,2019-08-04T12:30:00Z,30.2513,-88.0778,2.1,18.62,11111222 
DISL,ioos:station:DISL:DISL:1,2019-08-04T13:00:00Z,30.2513,-88.0778,2.111,18.62,11111222 
DISL,ioos:station:DISL:DISL:1,2019-08-04T13:30:00Z,30.2513,-88.0778,2.1,18.65,11111222 
DISL,ioos:station:DISL:DISL:1,2019-08-04T14:00:00Z,30.2513,-88.0778,2.123,18.33,11111222 
DISL,ioos:station:DISL:DISL:1,2019-08-04T14:30:00Z,30.2513,-88.0778,2.1,19.59,11111222 
DISL,ioos:station:DISL:DISL:1,2019-08-04T15:00:00Z,30.2513,-88.0778,2.134,20.4,11111222 
DISL,ioos:station:DISL:DISL:1,2019-08-04T15:30:00Z,30.2513,-88.0778,2.1,21.83,11111222 
DISL,ioos:station:DISL:DISL:1,2019-08-04T16:00:00Z,30.2513,-88.0778,2.16,21.59,11111222 
DISL,ioos:station:DISL:DISL:1,2019-08-04T16:30:00Z,30.2513,-88.0778,2.2,21.59,11111222 
DISL,ioos:station:DISL:DISL:1,2019-08-04T17:00:00Z,30.2513,-88.0778,2.17,22.97,11111222 
DISL,ioos:station:DISL:DISL:1,2019-08-04T17:30:00Z,30.2513,-88.0778,2.2,22.45,11111222 
DISL,ioos:station:DISL:DISL:1,2019-08-04T18:00:00Z,30.2513,-88.0778,2.19,23.13,11111222 
DISL,ioos:station:DISL:DISL:1,2019-08-04T18:30:00Z,30.2513,-88.0778,2.2,22.84,11111222 
DISL,ioos:station:DISL:DISL:1,2019-08-04T19:00:00Z,30.2513,-88.0778,2.173,20.41,11111222 
DISL,ioos:station:DISL:DISL:1,2019-08-04T19:30:00Z,30.2513,-88.0778,2.2,18.93,11111222 
DISL,ioos:station:DISL:DISL:1,2019-08-04T20:00:00Z,30.2513,-88.0778,2.187,18.87,11111222 
DISL,ioos:station:DISL:DISL:1,2019-08-04T20:30:00Z,30.2513,-88.0778,2.2,18.86,11111222 
DISL,ioos:station:DISL:DISL:1,2019-08-04T21:00:00Z,30.2513,-88.0778,2.172,18.86,11111222 
DISL,ioos:station:DISL:DISL:1,2019-08-04T21:30:00Z,30.2513,-88.0778,2.2,18.62,11111222 
DISL,ioos:station:DISL:DISL:1,2019-08-04T22:00:00Z,30.2513,-88.0778,2.122,18.84,11111222 
DISL,ioos:station:DISL:DISL:1,2019-08-04T22:30:00Z,30.2513,-88.0778,2.1,18.86,11111222 
DISL,ioos:station:DISL:DISL:1,2019-08-04T23:00:00Z,30.2513,-88.0778,2.102,18.84,11111222 
DISL,ioos:station:DISL:DISL:1,2019-08-04T23:30:00Z,30.2513,-88.0778,2.1,18.83,11111222 
DISL,ioos:station:DISL:DISL:1,2019-08-05T00:00:00Z,30.2513,-88.0778,2.057,18.82,11111222 
DISL,ioos:station:DISL:DISL:1,2019-08-05T00:30:00Z,30.2513,-88.0778,2.0,18.82,11111222 
DISL,ioos:station:DISL:DISL:1,2019-08-05T01:00:00Z,30.2513,-88.0778,2.044,18.81,11111222 
DISL,ioos:station:DISL:DISL:1,2019-08-05T01:30:00Z,30.2513,-88.0778,2.0,18.81,11111222 
DISL,ioos:station:DISL:DISL:1,2019-08-05T02:00:00Z,30.2513,-88.0778,2.016,18.79,11111222 
DISL,ioos:station:DISL:DISL:1,2019-08-05T02:30:00Z,30.2513,-88.0778,2.0,18.31,11111222 
DISL,ioos:station:DISL:DISL:1,2019-08-05T03:00:00Z,30.2513,-88.0778,1.998,18.35,11111222 
DISL,ioos:station:DISL:DISL:1,2019-08-05T03:30:00Z,30.2513,-88.0778,2.0,18.66,11111222 
DISL,ioos:station:DISL:DISL:1,2019-08-05T04:00:00Z,30.2513,-88.0778,1.989,18.87,11111222 
DISL,ioos:station:DISL:DISL:1,2019-08-05T04:30:00Z,30.2513,-88.0778,2.0,19.41,11111222 
DISL,ioos:station:DISL:DISL:1,2019-08-05T05:00:00Z,30.2513,-88.0778,2.077,20.89,11111222 
DISL,ioos:station:DISL:DISL:1,2019-08-05T05:30:00Z,30.2513,-88.0778,2.0,19.33,11111222 
DISL,ioos:station:DISL:DISL:1,2019-08-05T06:00:00Z,30.2513,-88.0778,2.004,19.35,11111222 
DISL,ioos:station:DISL:DISL:1,2019-08-05T06:30:00Z,30.2513,-88.0778,2.0,19.45,11111222 
DISL,ioos:station:DISL:DISL:1,2019-08-05T07:00:00Z,30.2513,-88.0778,1.991,21.83,11111222 
DISL,ioos:station:DISL:DISL:1,2019-08-05T07:30:00Z,30.2513,-88.0778,2.0,20.99,11111222 
DISL,ioos:station:DISL:DISL:1,2019-08-05T08:00:00Z,30.2513,-88.0778,1.983,20.73,11111222 
DISL,ioos:station:DISL:DISL:1,2019-08-05T08:30:00Z,30.2513,-88.0778,2.0,20.5,11111222 
DISL,ioos:station:DISL:DISL:1,2019-08-05T09:00:00Z,30.2513,-88.0778,2.04,20.91,11111222 
DISL,ioos:station:DISL:DISL:1,2019-08-05T09:30:00Z,30.2513,-88.0778,2.1,20.25,11111222 
DISL,ioos:station:DISL:DISL:1,2019-08-05T10:00:00Z,30.2513,-88.0778,2.07,20.33,11111222 
DISL,ioos:station:DISL:DISL:1,2019-08-05T10:30:00Z,30.2513,-88.0778,2.1,19.32,11111222 
DISL,ioos:station:DISL:DISL:1,2019-08-05T11:00:00Z,30.2513,-88.0778,2.122,18.61,11111222 
DISL,ioos:station:DISL:DISL:1,2019-08-05T11:30:00Z,30.2513,-88.0778,2.1,18.63,11111222 
DISL,ioos:station:DISL:DISL:1,2019-08-05T12:00:00Z,30.2513,-88.0778,2.047,18.48,11111222 
DISL,ioos:station:DISL:DISL:1,2019-08-05T12:30:00Z,30.2513,-88.0778,2.1,18.05,11111222 
DISL,ioos:station:DISL:DISL:1,2019-08-05T13:00:00Z,30.2513,-88.0778,2.085,17.75,11111222 
DISL,ioos:station:DISL:DISL:1,2019-08-05T13:30:00Z,30.2513,-88.0778,2.1,17.68,11111222 
DISL,ioos:station:DISL:DISL:1,2019-08-05T14:00:00Z,30.2513,-88.0778,2.07,17.55,11111222 
DISL,ioos:station:DISL:DISL:1,2019-08-05T14:30:00Z,30.2513,-88.0778,2.1,17.37,11111222 
DISL,ioos:station:DISL:DISL:1,2019-08-05T15:00:00Z,30.2513,-88.0778,2.065,17.22,11111222 
DISL,ioos:station:DISL:DISL:1,2019-08-05T15:30:00Z,30.2513,-88.0778,2.1,17.25,11111222 
DISL,ioos:station:DISL:DISL:1,2019-08-05T16:00:00Z,30.2513,-88.0778,2.078,17.35,11111222 
DISL,ioos:station:DISL:DISL:1,2019-08-05T16:30:00Z,30.2513,-88.0778,2.1,17.43,11111222 
DISL,ioos:station:DISL:DISL:1,2019-08-05T17:00:00Z,30.2513,-88.0778,2.062,17.51,11111222 
DISL,ioos:station:DISL:DISL:1,2019-08-05T17:30:00Z,30.2513,-88.0778,2.1,17.86,11111222 
DISL,ioos:station:DISL:DISL:1,2019-08-05T18:00:00Z,30.2513,-88.0778,2.066,18.0,11111222 
DISL,ioos:station:DISL:DISL:1,2019-08-05T18:30:00Z,30.2513,-88.0778,2.1,18.01,11111222 
DISL,ioos:station:DISL:DISL:1,2019-08-05T19:00:00Z,30.2513,-88.0778,2.092,18.07,11111222 
DISL,ioos:station:DISL:DISL:1,2019-08-05T19:30:00Z,30.2513,-88.0778,2.1,18.19,11111222 
DISL,ioos:station:DISL:DISL:1,2019-08-05T20:00:00Z,30.2513,-88.0778,2.053,18.23,11111222 
DISL,ioos:station:DISL:DISL:1,2019-08-05T20:30:00Z,30.2513,-88.0778,2.1,18.31,11111222 
DISL,ioos:station:DISL:DISL:1,2019-08-05T21:00:00Z,30.2513,-88.0778,2.074,18.37,11111222 
DISL,ioos:station:DISL:DISL:1,2019-08-05T21:30:00Z,30.2513,-88.0778,2.1,18.4,11111222 
DISL,ioos:station:DISL:DISL:1,2019-08-05T22:00:00Z,30.2513,-88.0778,2.076,18.47,11111222 
DISL,ioos:station:DISL:DISL:1,2019-08-05T22:30:00Z,30.2513,-88.0778,2.1,18.46,11111222 
DISL,ioos:station:DISL:DISL:1,2019-08-05T23:00:00Z,30.2513,-88.0778,2.091,18.48,11111222 
DISL,ioos:station:DISL:DISL:1,2019-08-05T23:30:00Z,30.2513,-88.0778,2.0,18.5,11111222 
DISL,ioos:station:DISL:DISL:1,2019-08-06T00:00:00Z,30.2513,-88.0778,2.034,18.54,11111222 
DISL,ioos:station:DISL:DISL:1,2019-08-06T00:30:00Z,30.2513,-88.0778,2.0,18.53,11111222 
DISL,ioos:station:DISL:DISL:1,2019-08-06T01:00:00Z,30.2513,-88.0778,2.005,17.68,11111222 
DISL,ioos:station:DISL:DISL:1,2019-08-06T01:30:00Z,30.2513,-88.0778,2.0,18.55,11111222 
DISL,ioos:station:DISL:DISL:1,2019-08-06T02:00:00Z,30.2513,-88.0778,2.023,18.56,11111222 
DISL,ioos:station:DISL:DISL:1,2019-08-06T02:30:00Z,30.2513,-88.0778,2.0,18.56,11111222 
DISL,ioos:station:DISL:DISL:1,2019-08-06T03:00:00Z,30.2513,-88.0778,1.993,18.09,11111222 
DISL,ioos:station:DISL:DISL:1,2019-08-06T03:30:00Z,30.2513,-88.0778,2.0,18.54,11111222 
DISL,ioos:station:DISL:DISL:1,2019-08-06T04:00:00Z,30.2513,-88.0778,2.01,18.57,11111222 
DISL,ioos:station:DISL:DISL:1,2019-08-06T04:30:00Z,30.2513,-88.0778,2.0,20.69,11111222 
DISL,ioos:station:DISL:DISL:1,2019-08-06T05:00:00Z,30.2513,-88.0778,2.026,21.62,11111222 
DISL,ioos:station:DISL:DISL:1,2019-08-06T05:30:00Z,30.2513,-88.0778,2.0,22.65,11111222 
DISL,ioos:station:DISL:DISL:1,2019-08-06T06:00:00Z,30.2513,-88.0778,2.021,22.67,11111222 
DISL,ioos:station:DISL:DISL:1,2019-08-06T06:30:00Z,30.2513,-88.0778,2.0,22.18,11111222 
DISL,ioos:station:DISL:DISL:1,2019-08-06T07:00:00Z,30.2513,-88.0778,2.02,21.15,11111222 
DISL,ioos:station:DISL:DISL:1,2019-08-06T07:30:00Z,30.2513,-88.0778,2.0,19.63,11111222 
DISL,ioos:station:DISL:DISL:1,2019-08-06T08:00:00Z,30.2513,-88.0778,2.031,18.7,11111222 
DISL,ioos:station:DISL:DISL:1,2019-08-06T08:30:00Z,30.2513,-88.0778,2.1,18.68,11111222 
DISL,ioos:station:DISL:DISL:1,2019-08-06T09:00:00Z,30.2513,-88.0778,2.044,18.7,11111222 
DISL,ioos:station:DISL:DISL:1,2019-08-06T09:30:00Z,30.2513,-88.0778,2.1,18.68,11111222 
DISL,ioos:station:DISL:DISL:1,2019-08-06T10:00:00Z,30.2513,-88.0778,2.079,18.67,11111222 
DISL,ioos:station:DISL:DISL:1,2019-08-06T10:30:00Z,30.2513,-88.0778,2.1,18.68,11111222 
DISL,ioos:station:DISL:DISL:1,2019-08-06T11:00:00Z,30.2513,-88.0778,2.077,18.69,11111222 
DISL,ioos:station:DISL:DISL:1,2019-08-06T11:30:00Z,30.2513,-88.0778,2.0,18.71,11111222 
DISL,ioos:station:DISL:DISL:1,2019-08-06T12:00:00Z,30.2513,-88.0778,2.043,18.7,11111222 
DISL,ioos:station:DISL:DISL:1,2019-08-06T12:30:00Z,30.2513,-88.0778,2.0,18.69,11111222 
DISL,ioos:station:DISL:DISL:1,2019-08-06T13:00:00Z,30.2513,-88.0778,2.037,19.43,11111222 
DISL,ioos:station:DISL:DISL:1,2019-08-06T13:30:00Z,30.2513,-88.0778,2.0,18.7,11111222 
DISL,ioos:station:DISL:DISL:1,2019-08-06T14:00:00Z,30.2513,-88.0778,1.995,19.39,11111222 